GW1838 Weather Reports


time (UTC)temp
C
wind
direction
speed
KPH
gust
KPH
rain 1hr
cm
rain 24hr
cm
rain mn
cm
humidity
%
barometer
mb
20260902063807 23 60 9.7 19.3 0.00 4.42 0.00 92 1015.9
20260902062807 23 70 11.3 22.5 0.00 4.42 0.00 93 1015.7
20260902061807 23 59 14.5 22.5 0.00 4.42 0.00 93 1015.6
20260902061307 23 54 9.7 20.9 0.00 4.42 0.00 93 1015.6
20260902060807 23 54 9.7 19.3 0.00 4.42 0.00 93 1015.7
20260902055807 23 37 9.7 22.5 0.00 4.42 0.00 93 1015.6
20260902053807 23 64 9.7 24.1 0.00 4.42 0.00 93 1015.7
20260902053307 23 70 12.9 24.1 0.00 4.42 0.00 93 1015.6
20260902051807 23 41 11.3 24.1 0.00 4.42 0.00 93 1015.7
20260902045807 23 50 9.7 19.3 0.00 4.42 0.00 93 1015.6
20260902045307 23 49 9.7 20.9 0.00 4.42 0.00 92 1015.6
20260902043807 23 34 11.3 20.9 0.00 4.42 0.00 92 1015.6
20260902043307 23 30 11.3 20.9 0.00 4.42 0.00 92 1015.6
20260902042807 23 24 12.9 25.7 0.00 4.42 0.00 92 1015.5
20260902042309 23 36 14.5 24.1 0.00 4.42 0.00 92 1015.5
20260902041807 23 26 14.5 24.1 0.00 4.42 0.00 92 1015.4
20260902040838 23 25 19.3 25.7 0.00 4.42 0.00 92 1015.3
20260902040308 23 25 16.1 24.1 0.00 4.42 0.00 92 1015.3
20260902035807 23 33 14.5 24.1 0.00 4.42 4.42 92 1015.1
20260902035307 23 29 11.3 19.3 0.00 4.42 4.42 92 1015.0
20260902034807 22 30 11.3 19.3 0.00 4.42 4.42 92 1015.0
20260902033807 22 353 14.5 20.9 0.00 4.42 4.42 92 1015.0
20260902033307 22 349 17.7 22.5 0.03 4.42 4.42 92 1015.0
20260902032807 22 350 16.1 19.3 0.03 4.42 4.42 92 1014.9
20260902032307 22 346 14.5 20.9 0.03 4.42 4.42 92 1014.7
20260902030807 22 324 3.2 9.7 0.03 4.42 4.42 92 1014.8
20260902024807 22 253 6.4 19.3 0.05 4.42 4.42 91 1014.8
20260902024307 22 250 9.7 24.1 0.08 4.42 4.42 91 1015.0
20260902023307 22 241 11.3 19.3 0.13 4.39 4.39 92 1015.2
20260902021806 22 255 3.2 4.8 1.17 4.39 4.39 91 1015.4
20260902020307 22 311 9.7 22.5 3.20 4.39 4.39 91 1014.8
20260902015806 22 345 14.5 22.5 3.58 4.39 4.39 92 1014.3
20260902015307 22 19 6.4 16.1 3.94 4.39 4.39 91 1013.7
20260902014807 22 4 4.8 16.1 4.04 4.37 4.37 92 1013.5
20260902014307 22 321 6.4 16.1 4.17 4.34 4.34 92 1014.0
20260902012807 22 115 11.3 32.2 4.14 4.22 4.22 91 1013.3
20260902012309 22 90 20.9 37.0 3.96 4.01 4.01 91 1013.8
20260902011806 22 77 22.5 41.8 3.23 3.23 3.23 90 1014.7
20260902011306 23 48 33.8 45.1 2.26 2.26 2.26 88 1014.3
20260902010306 25 348 14.5 32.2 1.19 1.19 1.19 89 1013.0
20260902004807 26 248 3.2 8.0 0.33 0.33 0.33 89 1012.4
20260902003307 26 233 4.8 8.0 0.08 0.08 0.08 89 1012.1
20260902002807 26 212 3.2 9.7 0.08 0.08 0.08 89 1011.8
20260902002307 26 205 3.2 4.8 0.05 0.05 0.05 88 1012.1
20260902000307 26 196 8.0 11.3 0.00 0.00 0.00 87 1012.5
20260901234307 27 224 6.4 19.3 0.00 0.00 0.00 86 1012.3
20260901233306 27 243 9.7 20.9 0.00 0.00 0.00 85 1012.5
20260901231807 27 233 4.8 12.9 0.00 0.00 0.00 84 1012.5
20260901231307 27 233 6.4 14.5 0.00 0.00 0.00 84 1012.5
20260901230807 27 220 6.4 11.3 0.00 0.00 0.00 83 1012.3
20260901225806 27 223 8.0 19.3 0.00 0.00 0.00 83 1012.5
20260901225306 27 220 9.7 16.1 0.00 0.00 0.00 82 1012.3
20260901224306 27 226 4.8 14.5 0.00 0.00 0.00 83 1012.0
20260901223806 27 215 4.8 11.3 0.00 0.00 0.00 83 1012.0
20260901221807 27 212 9.7 19.3 0.00 0.00 0.00 82 1012.1
20260901214806 29 222 6.4 19.3 0.00 0.00 0.00 78 1012.3
20260901213806 29 197 8.0 19.3 0.00 0.00 0.00 77 1012.3
20260901211807 30 205 8.0 20.9 0.00 0.00 0.00 75 1012.3
20260901211307 30 206 6.4 19.3 0.00 0.00 0.00 76 1012.3
20260901210806 30 225 12.9 22.5 0.00 0.00 0.00 74 1012.4
20260901210307 31 209 6.4 14.5 0.00 0.00 0.00 74 1012.4
20260901205307 31 227 8.0 19.3 0.00 0.00 0.00 74 1012.4
20260901204807 31 230 4.8 16.1 0.00 0.00 0.00 75 1012.5
20260901203307 30 213 9.7 19.3 0.00 0.00 0.00 77 1012.4
20260901202806 30 208 9.7 20.9 0.00 0.00 0.00 76 1012.4
20260901202306 30 206 11.3 22.5 0.00 0.00 0.00 74 1012.4
20260901200806 31 219 9.7 19.3 0.00 0.00 0.00 72 1012.6
20260901200306 31 184 8.0 14.5 0.00 0.00 0.00 73 1012.7
20260901195807 31 221 8.0 19.3 0.00 0.00 0.00 73 1012.7
20260901195306 32 199 8.0 20.9 0.00 0.00 0.00 71 1012.6
20260901194807 32 251 4.8 11.3 0.00 0.00 0.00 72 1012.6
20260901192806 31 226 4.8 14.5 0.00 0.00 0.00 72 1012.6
20260901192306 31 238 9.7 16.1 0.00 0.00 0.00 72 1012.5
20260901191807 31 238 11.3 22.5 0.00 0.00 0.00 72 1012.5
20260901191306 31 230 9.7 19.3 0.00 0.00 0.00 72 1012.6
20260901190307 31 238 8.0 19.3 0.00 0.00 0.00 73 1012.8
20260901184806 32 236 6.4 14.5 0.00 0.00 0.00 70 1013.1
20260901184306 32 233 4.8 9.7 0.00 0.00 0.00 70 1013.2
20260901183806 31 233 4.8 8.0 0.00 0.00 0.00 72 1013.2
20260901182306 31 215 3.2 9.7 0.00 0.00 0.00 74 1013.3
20260901181806 31 247 3.2 4.8 0.00 0.00 0.00 75 1013.4
20260901180306 30 197 4.8 8.0 0.00 0.00 0.00 77 1013.4
20260901175806 30 199 3.2 8.0 0.00 0.00 0.00 77 1013.5
20260901174806 30 234 1.6 4.8 0.00 0.00 0.00 74 1013.6
20260901174306 30 261 0.0 3.2 0.00 0.00 0.00 74 1013.6
20260901173806 30 262 1.6 4.8 0.00 0.00 0.00 74 1013.6
20260901173307 30 250 1.6 4.8 0.00 0.00 0.00 74 1013.6
20260901171806 30 280 1.6 4.8 0.00 0.00 0.00 76 1013.8
20260901170806 30 288 0.0 0.0 0.00 0.00 0.00 76 1013.9
20260901170306 30 288 0.0 0.0 0.00 0.00 0.00 76 1014.1
20260901165806 30 231 0.0 0.0 0.00 0.00 0.00 75 1014.2
20260901164807 30 215 1.6 4.8 0.00 0.00 0.00 76 1014.1
20260901163806 31 252 0.0 4.8 0.00 0.00 0.00 72 1014.3
20260901162806 31 246 3.2 9.7 0.00 0.00 0.00 73 1014.4
20260901162306 30 255 3.2 8.0 0.00 0.00 0.00 73 1014.5
20260901161807 30 240 4.8 11.3 0.00 0.00 0.00 73 1014.6
20260901161306 31 221 4.8 11.3 0.00 0.00 0.00 72 1014.7
20260901160806 31 239 4.8 16.1 0.00 0.00 0.00 74 1014.6
20260901155806 30 187 8.0 16.1 0.00 0.00 0.00 76 1014.6
20260901155307 30 210 6.4 11.3 0.00 0.00 0.00 76 1014.6
20260901153806 28 214 4.8 11.3 0.00 0.00 0.00 79 1014.8
20260901152306 28 205 9.7 16.1 0.00 0.00 0.00 79 1014.7
20260901151306 30 202 6.4 14.5 0.00 0.00 0.00 77 1014.7
20260901145806 29 221 6.4 12.9 0.00 0.00 0.00 78 1014.7
20260901144806 28 234 8.0 11.3 0.00 0.00 0.00 80 1014.6
20260901141806 28 234 8.0 11.3 0.00 0.00 0.00 83 1014.7
20260901141307 27 252 4.8 9.7 0.00 0.00 0.00 84 1014.7
20260901140306 27 230 4.8 8.0 0.00 0.00 0.00 85 1014.7
20260901133806 26 236 4.8 8.0 0.00 0.00 0.00 86 1014.9
20260901132807 26 255 4.8 9.7 0.00 0.00 0.00 87 1014.9
20260901131806 26 229 4.8 12.9 0.00 0.00 0.00 87 1014.9
20260901130306 26 227 4.8 12.9 0.00 0.00 0.00 88 1015.0
20260901125309 25 245 4.8 8.0 0.00 0.00 0.00 89 1015.3
20260901124306 25 249 4.8 9.7 0.00 0.00 0.00 89 1015.3
20260901123806 25 242 4.8 11.3 0.00 0.00 0.00 89 1015.4
20260901122306 25 256 4.8 9.7 0.00 0.00 0.00 89 1015.4
20260901121806 25 245 4.8 14.5 0.00 0.00 0.00 89 1015.4
20260901121306 25 244 4.8 9.7 0.00 0.00 0.00 89 1015.4
20260901120806 25 241 4.8 11.3 0.00 0.00 0.00 89 1015.4
20260901120307 25 246 4.8 14.5 0.00 0.00 0.00 89 1015.4
20260901114806 25 247 6.4 12.9 0.00 0.00 0.00 89 1015.5
20260901114306 25 247 4.8 9.7 0.00 0.00 0.00 90 1015.5
20260901112806 24 248 4.8 9.7 0.00 0.00 0.00 90 1015.3
20260901112306 24 249 3.2 9.7 0.00 0.00 0.00 90 1015.4
20260901111309 24 260 4.8 8.0 0.00 0.00 0.00 90 1015.6
20260901110807 24 259 3.2 8.0 0.00 0.00 0.00 90 1015.6
20260901110306 24 250 4.8 8.0 0.00 0.00 0.00 90 1015.5
20260901104307 25 269 4.8 9.7 0.00 0.00 0.00 90 1015.2
20260901102306 25 242 8.0 16.1 0.00 0.00 0.00 90 1015.0
20260901101807 25 252 8.0 11.3 0.00 0.00 0.00 90 1014.9
20260901101306 25 240 4.8 11.3 0.00 0.00 0.00 90 1014.9
20260901100307 25 252 4.8 9.7 0.00 0.00 0.00 89 1014.9
20260901095807 25 244 3.2 11.3 0.00 0.00 0.00 89 1014.9
20260901094806 25 230 3.2 4.8 0.00 0.00 0.00 89 1015.0
20260901093306 25 239 6.4 12.9 0.00 0.00 0.00 89 1015.2
20260901092808 25 233 6.4 14.5 0.00 0.00 0.00 89 1015.2
20260901091806 25 244 4.8 11.3 0.00 0.00 0.00 89 1015.2
20260901090806 25 227 4.8 11.3 0.00 0.00 0.00 89 1015.1
20260901090306 25 237 4.8 14.5 0.00 0.00 0.00 89 1015.2
20260901085806 25 231 6.4 11.3 0.00 0.00 0.00 89 1015.3
20260901084806 25 234 6.4 14.5 0.00 0.00 0.00 89 1015.4
20260901083806 25 235 9.7 19.3 0.00 0.00 0.00 89 1015.4
20260901082806 25 238 8.0 14.5 0.00 0.03 0.00 89 1015.4
20260901082306 25 240 4.8 16.1 0.00 0.03 0.00 89 1015.3
20260901080806 24 235 9.7 19.3 0.00 0.03 0.00 89 1015.3
20260901074806 24 233 6.4 14.5 0.00 0.03 0.00 89 1015.5
20260901073306 24 219 4.8 14.5 0.00 0.03 0.00 89 1015.6
20260901072806 24 224 3.2 8.0 0.00 0.03 0.00 89 1015.6
20260901071306 24 228 3.2 9.7 0.00 0.03 0.00 89 1015.7
20260901070806 24 235 3.2 9.7 0.00 0.03 0.00 89 1015.8
20260901070306 24 235 4.8 9.7 0.00 0.03 0.00 89 1015.8